Weather History for KCAK - September, 2013

Change the Weather History Date:

Monday, September 23, 2013

  Actual Average Record
Temperature  
Mean Temperature 52 °F 60 °F  
Max Temperature 59 °F 70 °F 91 °F (1936)
Min Temperature 44 °F 51 °F 35 °F (1974)
Degree Days  
Heating Degree Days 13 6  
Month to date heating degree days 76 68  
Since 1 July heating degree days 89 88  
Cooling Degree Days 0 1  
Month to date cooling degree days 77 58  
Year to date cooling degree days 801 640  
Growing Degree Days 4 (Base 50)    
Moisture  
Dew Point 44 °F    
Average Humidity 71    
Maximum Humidity 89    
Minimum Humidity 53    
Precipitation  
Precipitation 0.00 in 0.11 in 1.27 in (2000)
Month to date precipitation 2.90 2.69  
Year to date precipitation 29.97 29.89  
Snow  
Snow 0.00 in 0.00 in - ()
Month to date snowfall 0.0 0.0  
Since 1 July snowfall 0.0 0.0  
Since 1 September snowfall 0.0 0.0  
Snow Depth 0.00 in    
Sea Level Pressure  
Sea Level Pressure 30.13 in    
Wind  
Wind Speed 4 mph (NE)    
Max Wind Speed 10 mph    
Max Gust Speed 17 mph    
Visibility 10 miles    
Events      
T = Trace of Precipitation, MM = Missing Value Source: NWS Daily Summary

Daily Weather History Graph

Daily Weather History Graph

Search for Another Location

Airport or City:

Trip Planner

Search our weather history database for the weather conditions in past years. The results will help you decide how hot, cold, wet, or windy it might be!

Date:

Astronomy

Sep. 23, 2013 Rise Set
Actual Time 7:14 AM EDT 7:20 PM EDT
Civil Twilight 6:47 AM EDT 7:48 PM EDT
Nautical Twilight 6:15 AM EDT 8:20 PM EDT
Astronomical Twilight 5:42 AM EDT 8:52 PM EDT
Moon 9:50 PM EDT (9/23) 11:34 AM EDT (9/23)
Length of Visible Light 13h 01m
Length of Day
12h 06m
Waning Gibbous, 81% of the Moon is Illuminated
Sep 23
Waning Gibbous
Sep 26
Last Quarter
Oct 4
New
Oct 11
First Quarter
Oct 18
Full

Hourly Weather History & Observations

Time (EDT) Temp. Windchill Dew Point Humidity Pressure Visibility Wind Dir Wind Speed Gust Speed Precip Events Conditions
12:51 AM 52.0 °F - 46.9 °F 83% 30.06 in 10.0 mi NE 5.8 mph - N/A   Overcast
1:51 AM 52.0 °F - 46.0 °F 80% 30.07 in 10.0 mi NNE 5.8 mph - N/A   Overcast
2:51 AM 51.1 °F - 46.0 °F 83% 30.07 in 10.0 mi NNE 3.5 mph - N/A   Overcast
3:51 AM 51.1 °F - 46.0 °F 83% 30.07 in 10.0 mi North 3.5 mph - N/A   Overcast
4:51 AM 51.1 °F - 45.0 °F 80% 30.08 in 10.0 mi North 3.5 mph - N/A   Overcast
5:51 AM 51.1 °F - 45.0 °F 80% 30.09 in 10.0 mi North 3.5 mph - N/A   Overcast
6:51 AM 51.1 °F - 46.0 °F 83% 30.11 in 10.0 mi NNE 5.8 mph - N/A   Overcast
7:51 AM 51.1 °F - 44.1 °F 77% 30.13 in 10.0 mi ENE 5.8 mph - N/A   Overcast
8:51 AM 52.0 °F - 45.0 °F 77% 30.14 in 10.0 mi East 5.8 mph - N/A   Overcast
9:51 AM 54.0 °F - 45.0 °F 72% 30.14 in 10.0 mi East 5.8 mph - N/A   Overcast
10:51 AM 55.9 °F - 44.1 °F 64% 30.16 in 10.0 mi NE 6.9 mph - N/A   Overcast
11:51 AM 55.9 °F - 42.1 °F 60% 30.17 in 10.0 mi ENE 5.8 mph - N/A   Overcast
12:51 PM 57.0 °F - 41.0 °F 55% 30.17 in 10.0 mi NE 4.6 mph - N/A   Overcast
1:51 PM 57.9 °F - 43.0 °F 58% 30.16 in 10.0 mi East 8.1 mph - N/A   Overcast
2:51 PM 57.9 °F - 42.1 °F 56% 30.15 in 10.0 mi Calm Calm - N/A   Overcast
3:51 PM 59.0 °F - 42.1 °F 53% 30.14 in 10.0 mi NE 3.5 mph - N/A   Overcast
4:51 PM 57.9 °F - 42.1 °F 56% 30.14 in 10.0 mi North 5.8 mph - N/A   Mostly Cloudy
5:51 PM 57.0 °F - 42.1 °F 57% 30.14 in 10.0 mi East 4.6 mph - N/A   Mostly Cloudy
6:51 PM 55.0 °F - 43.0 °F 64% 30.14 in 10.0 mi Calm Calm - N/A   Mostly Cloudy
7:51 PM 53.1 °F - 44.1 °F 71% 30.14 in 10.0 mi East 4.6 mph - N/A   Mostly Cloudy
8:51 PM 53.1 °F - 44.1 °F 71% 30.14 in 10.0 mi ENE 3.5 mph - N/A   Mostly Cloudy
9:51 PM 51.1 °F - 43.0 °F 74% 30.14 in 10.0 mi East 4.6 mph - N/A   Partly Cloudy
10:51 PM 48.0 °F - 42.1 °F 80% 30.14 in 10.0 mi ENE 4.6 mph - N/A   Clear
11:51 PM 45.0 °F 43.5 °F 41.0 °F 86% 30.14 in 10.0 mi NE 3.5 mph - N/A   Clear